Regional Weather Roundup
Issued by NWS

Home | Current Version | Previous Version | Text Only | Print | Product List | Glossary Off
Versions: 1 2 3 4 5 6 7 8 9 10 11 12 13 14 15 16 17 18 19 20 21 22 23 24 25 26 27 28 29 30 31 32 33 34 35 36 37 38 39 40 41 42 43 44 45 46 47 48 49 50

000
ASUS43 KLMK 250402
RWRKY
KENTUCKY REGIONAL WEATHER ROUNDUP
NATIONAL WEATHER SERVICE LOUISVILLE KY
1200 AM EDT FRI JUL 25 2014

NOTE "FAIR" INDICATES FEW OR NO CLOUDS BELOW 12,000 FEET
WITH NO SIGNIFICANT WEATHER AND/OR OBSTRUCTIONS TO VISIBILITY.

KYZ001>023-026-027-061>063-070>075-250500-
WESTERN AND SOUTH CENTRAL KENTUCKY

CITY           SKY/WX    TMP DP  RH WIND       PRES   REMARKS
PADUCAH        CLEAR     64  59  83 CALM      30.04F
HENDERSON      CLEAR     61  55  82 CALM      30.04F
OWENSBORO      CLEAR     69  55  60 E5        30.05F
HOPKINSVILLE   CLEAR     64  57  77 NE5       30.05S
BOWLING GREEN  CLEAR     67  55  65 CALM      30.06R
GLASGOW        CLEAR     65  54  66 N3        30.05S
$$

KYZ024-025-028>034-038-045-046-053-250500-
NORTH CENTRAL KENTUCKY

CITY           SKY/WX    TMP DP  RH WIND       PRES   REMARKS
LOUISVILLE/SDF PTCLDY    69  55  60 NE6       30.06S
LOUISVILLE/LOU CLEAR     69  54  58 NE5       30.06F
FORT KNOX      CLEAR     62  56  81 N5        30.06R
$$

KYZ035>037-039>044-047>052-055>060-089>105-250500-
NORTHEAST KENTUCKY

CITY           SKY/WX    TMP DP  RH WIND       PRES   REMARKS
LEXINGTON      PTCLDY    64  55  72 NE5       30.07F
COVINGTON      MOCLDY    67  52  58 N6        30.07F
FRANKFORT      PTCLDY    67  55  65 VRB3      30.05F
$$

KYZ054-064>069-076>088-106>120-250500-
SOUTHEAST KENTUCKY

CITY           SKY/WX    TMP DP  RH WIND       PRES   REMARKS
JACKSON        CLEAR     63  61  93 CALM      30.09R FOG
LONDON         CLEAR     63  60  90 CALM      30.08R FOG
SOMERSET       PTCLDY    61  61 100 CALM      30.08S FOG
MIDDLESBORO    CLEAR     61  60  97 CALM      30.09R
MONTICELLO     CLEAR     60  60 100 CALM      30.09R FOG
$$




USA.gov is the U.S. government's official web portal to all federal, state and local government web resources and services.